period_start,C,m1,H,J0,J1,J2,J3,J4,J5,JA,JB,JC,JD,JJ,JK,JN,#
2014-04-18 00:00:27,0.05,0.77,0.00,16.06,22.64,25.46,6.28,33.00,1019.45,2056.05,3178.03,3136.87,3377.26,349.84,332.61,12.22,0000 0000 0000 0000 000000
2014-04-18 00:01:27,0.06,0.77,0.00,16.07,22.64,25.58,6.27,32.71,1019.44,2056.03,3177.95,3136.57,3377.10,350.16,332.97,12.22,0000 0000 0000 0000 000000
2014-04-18 00:02:27,0.09,0.77,0.00,16.07,22.65,25.56,6.11,32.50,1019.46,2056.02,3177.52,3136.26,3377.03,349.10,331.81,12.23,0000 0000 0000 0000 000000
2014-04-18 00:03:28,0.12,0.77,0.00,16.08,22.65,25.55,6.07,32.46,1019.51,2056.04,3177.22,3136.11,3377.01,349.59,332.27,12.24,0000 0000 0000 0000 000000
2014-04-18 00:04:28,0.08,0.77,0.00,16.09,22.66,25.60,6.33,32.75,1019.37,2056.04,3177.08,3136.04,3376.92,350.79,333.36,12.24,0000 0000 0000 0000 000000
2014-04-18 00:05:28,0.05,0.77,0.00,16.09,22.67,25.56,6.27,32.75,1019.33,2056.02,3177.03,3136.01,3376.66,349.80,332.40,12.25,0000 0000 0000 0000 000000
2014-04-18 00:06:28,0.04,0.77,0.00,16.09,22.67,25.60,6.16,32.58,1019.36,2056.04,3176.93,3136.00,3376.28,349.39,332.02,12.25,0000 0000 0000 0000 000000
2014-04-18 00:07:28,0.08,0.77,0.00,16.09,22.67,25.50,6.23,32.79,1019.32,2056.02,3176.53,3135.84,3376.10,350.29,332.86,12.26,0000 0000 0000 0000 000000
2014-04-18 00:08:29,0.10,0.77,0.00,16.09,22.67,25.48,6.08,32.50,1019.31,2056.01,3176.21,3135.44,3376.02,349.14,331.77,12.27,0000 0000 0000 0000 000000
2014-04-18 00:09:29,0.13,0.78,0.00,16.09,22.67,25.53,6.27,32.67,1019.42,2056.00,3176.07,3135.19,3376.00,350.04,332.66,12.27,0000 0000 0000 0000 000000
2014-04-18 00:10:29,0.07,0.78,0.00,16.08,22.67,25.53,6.09,32.63,1019.45,2056.01,3176.01,3135.09,3375.95,350.01,332.50,12.28,0000 0000 0000 0000 000000
2014-04-18 00:11:29,0.04,0.78,0.00,16.07,22.67,25.54,6.06,32.67,1019.48,2056.01,3175.84,3135.03,3375.67,349.12,331.82,12.28,0000 0000 0000 0000 000000
2014-04-18 00:12:30,0.07,0.78,0.00,16.05,22.67,25.45,6.16,32.42,1019.49,2056.01,3175.38,3135.01,3375.32,349.79,332.48,12.29,0000 0000 0000 0000 000000
2014-04-18 00:13:30,0.10,0.78,0.00,16.06,22.68,25.46,6.37,32.63,1019.52,2056.02,3175.14,3135.00,3375.13,350.23,332.91,12.29,0000 0000 0000 0000 000000
2014-04-18 00:14:30,0.06,0.78,0.00,16.09,22.69,25.59,6.23,32.58,1019.52,2056.01,3175.05,3135.00,3375.05,349.88,332.54,12.30,0000 0000 0000 0000 000000
2014-04-18 00:15:30,0.02,0.78,0.00,16.09,22.69,25.62,6.34,32.88,1019.50,2056.00,3175.01,3135.00,3375.01,350.29,333.03,12.31,0000 0000 0000 0000 000000
2014-04-18 00:16:31,0.00,0.78,0.00,16.10,22.69,25.53,6.22,32.83,1019.53,2056.00,3174.86,3134.98,3375.00,349.99,332.65,12.31,0000 0000 0000 0000 000000
2014-04-18 00:17:31,0.04,0.78,0.00,16.12,22.69,25.49,6.20,32.75,1019.51,2056.01,3174.41,3134.70,3374.76,349.65,331.91,12.32,0000 0000 0000 0000 000000
2014-04-18 00:18:31,0.15,0.78,0.00,16.13,22.69,25.54,6.15,32.79,1019.53,2056.01,3174.15,3134.31,3374.34,349.59,332.43,12.32,0000 0000 0000 0000 000000
2014-04-18 00:19:31,0.18,0.78,0.00,16.14,22.70,25.54,6.13,32.58,1019.53,2056.01,3174.05,3134.13,3374.13,349.60,332.22,12.33,0000 0000 0000 0000 000000
2014-04-18 00:20:32,0.06,0.78,0.00,16.13,22.70,25.62,6.22,32.75,1019.49,2056.01,3173.99,3134.06,3374.05,350.04,332.63,12.34,0000 0000 0000 0000 000000
2014-04-18 00:21:32,0.03,0.78,0.00,16.12,22.70,25.63,6.27,32.71,1019.53,2056.00,3173.67,3134.02,3374.01,350.05,332.64,12.34,0000 0000 0000 0000 000000
2014-04-18 00:22:32,0.05,0.78,0.00,16.13,22.71,25.57,6.30,32.79,1019.52,2056.02,3173.27,3134.00,3373.99,350.04,332.59,12.35,0000 0000 0000 0000 000000
2014-04-18 00:23:32,0.07,0.78,0.00,16.14,22.72,25.59,6.24,32.63,1019.48,2056.01,3173.10,3133.97,3373.78,350.39,333.29,12.35,0000 0000 0000 0000 000000
2014-04-18 00:24:33,0.05,0.78,0.00,16.13,22.72,25.61,6.12,32.54,1019.48,2056.00,3173.03,3133.80,3373.37,349.62,332.29,12.36,0000 0000 0000 0000 000000
2014-04-18 00:25:33,0.11,0.78,0.00,16.12,22.72,25.52,6.17,33.04,1019.52,2056.00,3172.95,3133.51,3373.14,349.82,332.26,12.36,0000 0000 0000 0000 000000
2014-04-18 00:26:33,0.10,0.78,0.00,16.12,22.72,25.47,6.18,32.79,1019.53,2056.00,3172.66,3133.24,3373.05,350.13,332.75,12.37,0000 0000 0000 0000 000000
2014-04-18 00:27:34,0.10,0.78,0.00,16.12,22.72,25.46,6.10,32.75,1019.55,2056.00,3172.27,3133.10,3373.02,349.60,332.25,12.38,0000 0000 0000 0000 000000
2014-04-18 00:28:34,0.07,0.78,0.00,16.12,22.72,25.47,6.33,32.79,1019.53,2055.99,3172.10,3133.03,3373.00,349.99,332.41,12.38,0000 0000 0000 0000 000000
2014-04-18 00:29:34,0.02,0.78,0.00,16.14,22.72,25.38,6.26,32.79,1019.50,2055.99,3172.03,3133.01,3372.84,349.58,332.20,12.39,0000 0000 0000 0000 000000
2014-04-18 00:30:34,0.04,0.79,0.00,16.15,22.73,25.42,6.14,32.92,1019.52,2055.99,3171.89,3132.95,3372.46,349.22,331.84,12.39,0000 0000 0000 0000 000000
2014-04-18 00:31:35,0.10,0.79,0.00,16.18,22.73,25.41,6.35,32.96,1019.50,2055.99,3171.47,3132.81,3372.18,350.18,332.71,12.40,0000 0000 0000 0000 000000
2014-04-18 00:32:35,0.13,0.79,0.00,16.19,22.74,25.43,6.18,32.88,1019.53,2055.99,3171.19,3132.48,3372.07,350.04,331.99,12.41,0000 0000 0000 0000 000000
2014-04-18 00:33:35,0.11,0.79,0.00,16.19,22.74,25.51,6.08,32.92,1019.55,2055.99,3171.05,3132.22,3372.02,349.31,331.90,12.41,0000 0000 0000 0000 000000
2014-04-18 00:34:36,0.08,0.79,0.00,16.19,22.74,25.53,6.18,32.75,1019.55,2055.99,3170.99,3132.10,3371.99,349.64,332.21,12.42,0000 0000 0000 0000 000000
2014-04-18 00:35:36,0.04,0.79,0.00,16.19,22.74,25.54,6.30,32.83,1019.55,2055.99,3170.92,3132.03,3371.91,350.16,332.52,12.42,0000 0000 0000 0000 000000
2014-04-18 00:36:36,0.04,0.79,0.00,16.19,22.74,25.59,6.28,32.71,1019.55,2055.99,3170.67,3132.01,3371.62,350.53,332.72,12.43,0000 0000 0000 0000 000000
2014-04-18 00:37:36,0.09,0.79,0.00,16.19,22.75,25.63,6.27,32.83,1019.55,2055.99,3170.26,3131.98,3371.24,349.93,332.57,12.44,0000 0000 0000 0000 000000
2014-04-18 00:38:37,0.11,0.79,0.00,16.18,22.75,25.73,6.33,32.67,1019.55,2055.99,3170.09,3131.93,3371.08,349.89,332.37,12.44,0000 0000 0000 0000 000000
2014-04-18 00:39:37,0.05,0.79,0.00,16.19,22.75,25.70,6.20,32.67,1019.56,2055.99,3170.02,3131.74,3371.03,349.52,332.37,12.45,0000 0000 0000 0000 000000
2014-04-18 00:40:37,0.07,0.79,0.00,16.20,22.76,25.70,6.16,32.83,1019.55,2055.99,3169.83,3131.37,3371.00,349.30,331.88,12.45,0000 0000 0000 0000 000000
2014-04-18 00:41:38,0.12,0.79,0.00,16.19,22.77,25.58,6.27,32.71,1019.55,2055.99,3169.37,3131.15,3370.80,350.21,332.82,12.46,0000 0000 0000 0000 000000
2014-04-18 00:42:38,0.14,0.79,0.00,16.20,22.77,25.61,6.30,32.54,1019.59,2055.99,3169.13,3131.05,3370.35,349.94,332.88,12.46,0000 0000 0000 0000 000000
2014-04-18 00:43:38,0.10,0.79,0.00,16.22,22.77,25.57,6.03,32.54,1019.78,2055.99,3169.05,3131.02,3370.15,349.09,331.73,12.47,0000 0000 0000 0000 000000
2014-04-18 00:44:38,0.04,0.79,0.00,16.22,22.77,25.61,6.21,32.67,1019.75,2055.99,3169.01,3131.00,3370.05,349.51,332.11,12.48,0000 0000 0000 0000 000000
2014-04-18 00:45:39,0.01,0.79,0.00,16.24,22.77,25.55,6.38,32.63,1019.89,2055.99,3168.82,3130.99,3370.02,351.06,333.60,12.48,0000 0000 0000 0000 000000
2014-04-18 00:46:39,0.04,0.79,0.00,16.24,22.77,25.57,6.26,32.71,1019.93,2055.99,3168.42,3130.89,3370.00,349.73,332.40,12.49,0000 0000 0000 0000 000000
2014-04-18 00:47:39,0.10,0.79,0.00,16.24,22.78,25.63,6.39,32.71,1019.96,2055.99,3168.16,3130.48,3369.81,351.03,333.60,12.49,0000 0000 0000 0000 000000
2014-04-18 00:48:40,0.14,0.79,0.00,16.25,22.78,25.64,6.13,32.67,1020.01,2055.98,3168.05,3130.19,3369.39,349.59,332.51,12.50,0000 0000 0000 0000 000000
2014-04-18 00:49:40,0.12,0.79,0.00,16.26,22.79,25.63,6.32,32.75,1020.02,2055.98,3167.94,3130.07,3369.15,350.17,332.79,12.51,0000 0000 0000 0000 000000
2014-04-18 00:50:40,0.08,0.79,0.00,16.27,22.79,25.70,6.34,32.79,1020.03,2055.98,3167.56,3130.01,3369.05,350.59,332.98,12.51,0000 0000 0000 0000 000000
2014-04-18 00:51:40,0.07,0.80,0.00,16.27,22.79,25.71,6.32,32.67,1020.01,2055.98,3167.21,3129.99,3369.01,350.28,332.88,12.52,0000 0000 0000 0000 000000
2014-04-18 00:52:41,0.05,0.80,0.00,16.27,22.79,25.64,6.21,32.75,1020.03,2055.97,3167.07,3129.91,3368.96,349.55,331.99,12.52,0000 0000 0000 0000 000000
2014-04-18 00:53:41,0.08,0.80,0.00,16.27,22.79,25.69,6.16,32.67,1020.03,2055.98,3166.86,3129.47,3368.52,349.59,331.86,12.53,0000 0000 0000 0000 000000
2014-04-18 00:54:41,0.16,0.80,0.00,16.29,22.79,25.67,6.16,32.71,1020.03,2055.96,3166.47,3129.20,3368.20,349.68,332.64,12.53,0000 0000 0000 0000 000000
2014-04-18 00:55:41,0.15,0.80,0.00,16.29,22.80,25.49,6.12,32.83,1020.03,2055.97,3166.18,3129.08,3368.08,349.61,331.76,12.54,0000 0000 0000 0000 000000
2014-04-18 00:56:42,0.08,0.80,0.00,16.27,22.80,25.50,6.24,32.88,1020.01,2055.97,3166.06,3129.03,3368.03,350.12,332.56,12.55,0000 0000 0000 0000 000000
2014-04-18 00:57:42,0.03,0.80,0.00,16.28,22.81,25.52,6.21,32.75,1019.98,2055.98,3166.02,3129.00,3367.99,350.54,333.42,12.55,0000 0000 0000 0000 000000
2014-04-18 00:58:42,0.02,0.80,0.00,16.29,22.82,25.54,6.04,32.79,1019.95,2055.98,3165.80,3128.99,3367.92,349.00,331.61,12.56,0000 0000 0000 0000 000000
2014-04-18 00:59:42,0.05,0.80,0.00,16.31,22.82,25.53,6.25,32.83,1019.89,2055.98,3165.50,3128.89,3367.54,349.57,332.12,12.56,0000 0000 0000 0000 000000
2014-04-18 01:00:43,0.14,0.80,0.00,16.34,22.82,25.57,6.39,33.00,1019.82,2055.99,3165.18,3128.56,3367.23,350.44,333.10,12.57,0000 0000 0000 0000 000000
2014-04-18 01:01:43,0.14,0.80,0.00,16.35,22.82,25.64,6.25,32.92,1019.87,2055.94,3165.07,3128.23,3367.08,349.82,332.29,12.58,0000 0000 0000 0000 000000
2014-04-18 01:02:43,0.06,0.80,0.00,16.37,22.82,25.59,6.08,32.96,1019.76,2055.94,3165.01,3128.09,3367.02,350.12,332.52,12.58,0000 0000 0000 0000 000000
2014-04-18 01:03:44,0.06,0.80,0.00,16.38,22.82,25.65,6.27,32.83,1019.65,2055.94,3164.69,3128.04,3366.98,350.23,332.57,12.59,0000 0000 0000 0000 000000
2014-04-18 01:04:44,0.06,0.80,0.00,16.38,22.83,25.72,6.13,32.67,1019.61,2055.89,3164.35,3128.01,3366.81,349.71,331.79,12.59,0000 0000 0000 0000 000000
2014-04-18 01:05:44,0.03,0.80,0.00,16.37,22.84,25.59,6.08,32.67,1019.57,2055.85,3164.13,3128.00,3366.38,349.69,332.01,12.60,0000 0000 0000 0000 000000
2014-04-18 01:06:44,0.03,0.80,0.00,16.37,22.84,25.68,6.19,32.75,1019.57,2055.85,3164.05,3127.97,3366.17,350.26,332.18,12.60,0000 0000 0000 0000 000000
2014-04-18 01:07:45,0.07,0.80,0.00,16.37,22.84,25.61,6.36,32.88,1019.55,2055.91,3163.99,3127.85,3366.07,350.02,332.36,12.61,0000 0000 0000 0000 000000
2014-04-18 01:08:45,0.11,0.80,0.00,16.35,22.84,25.72,6.12,32.92,1019.55,2055.90,3163.73,3127.41,3366.02,349.37,331.77,12.62,0000 0000 0000 0000 000000
2014-04-18 01:09:45,0.11,0.80,0.00,16.34,22.84,25.68,6.33,32.96,1019.56,2055.80,3163.30,3127.17,3366.00,350.57,332.95,12.62,0000 0000 0000 0000 000000
2014-04-18 01:10:46,0.04,0.80,0.00,16.36,22.85,25.61,6.26,33.04,1019.56,2055.76,3163.11,3127.07,3365.81,349.72,332.09,12.63,0000 0000 0000 0000 000000
2014-04-18 01:11:46,0.08,0.81,0.00,16.37,22.85,25.62,6.32,33.04,1019.56,2055.74,3163.03,3127.02,3365.38,349.60,331.97,12.63,0000 0000 0000 0000 000000
2014-04-18 01:12:46,0.01,0.81,0.00,16.36,22.86,25.66,6.25,32.79,1019.56,2055.61,3162.93,3127.00,3365.15,350.28,332.62,12.64,0000 0000 0000 0000 000000
2014-04-18 01:13:46,-0.05,0.80,0.00,16.36,22.87,25.76,6.13,32.75,1019.57,2055.46,3162.47,3126.88,3365.05,349.68,332.06,12.65,0000 0000 0000 0000 000000
2014-04-18 01:14:46,0.00,0.81,0.00,16.37,22.87,25.76,6.18,33.00,1019.63,2055.37,3162.17,3126.51,3365.02,350.24,332.21,12.65,0000 0000 0000 0000 000000
2014-04-18 01:15:47,0.03,0.81,0.00,16.37,22.87,25.78,6.30,32.75,1019.63,2055.23,3162.06,3126.20,3364.90,350.52,333.25,12.66,0000 0000 0000 0000 000000
2014-04-18 01:16:47,0.02,0.81,0.00,16.39,22.87,25.77,6.42,32.75,1019.64,2055.14,3162.00,3126.07,3364.56,350.37,332.49,12.66,0000 0000 0000 0000 000000
2014-04-18 01:17:47,0.02,0.81,0.00,16.39,22.87,25.76,6.36,32.75,1019.80,2055.15,3161.73,3126.02,3364.26,349.91,332.31,12.67,0000 0000 0000 0000 000000
2014-04-18 01:18:47,0.09,0.81,0.00,16.39,22.88,25.76,6.37,32.88,1019.79,2055.11,3161.32,3126.00,3364.10,350.22,332.60,12.68,0000 0000 0000 0000 000000
2014-04-18 01:19:48,0.05,0.81,0.00,16.39,22.89,25.73,6.30,32.83,1019.72,2055.06,3161.12,3125.86,3364.03,350.22,332.47,12.68,0000 0000 0000 0000 000000
2014-04-18 01:20:48,0.05,0.81,0.00,16.41,22.89,25.68,6.16,32.83,1019.97,2055.06,3161.02,3125.53,3363.95,349.66,332.43,12.69,0000 0000 0000 0000 000000
2014-04-18 01:21:48,0.10,0.81,0.00,16.40,22.89,25.76,6.32,32.96,1019.99,2055.05,3160.66,3125.23,3363.62,350.11,332.56,12.69,0000 0000 0000 0000 000000
2014-04-18 01:22:49,0.14,0.81,0.00,16.41,22.89,25.74,6.34,32.83,1020.03,2055.02,3160.30,3125.08,3363.24,350.32,332.76,12.70,0000 0000 0000 0000 000000
2014-04-18 01:23:49,0.10,0.81,0.00,16.41,22.89,25.74,6.27,32.63,1020.03,2055.01,3160.11,3125.03,3363.08,349.28,331.77,12.70,0000 0000 0000 0000 000000
2014-04-18 01:24:49,0.05,0.81,0.00,16.42,22.90,25.75,6.27,32.71,1020.01,2055.02,3160.04,3125.01,3363.03,350.35,332.77,12.71,0000 0000 0000 0000 000000
2014-04-18 01:25:50,0.02,0.81,0.00,16.42,22.90,25.74,6.25,32.96,1020.03,2055.03,3160.00,3125.00,3363.01,350.01,332.44,12.72,0000 0000 0000 0000 000000
2014-04-18 01:26:50,0.02,0.81,0.00,16.42,22.91,25.78,6.11,32.71,1020.03,2055.02,3159.74,3124.94,3362.89,348.79,331.89,12.72,0000 0000 0000 0000 000000
2014-04-18 01:27:50,0.09,0.81,0.00,16.41,22.92,25.71,6.08,32.88,1020.03,2055.04,3159.32,3124.73,3362.62,350.12,332.56,12.73,0000 0000 0000 0000 000000
2014-04-18 01:28:50,0.15,0.81,0.00,16.41,22.92,25.72,6.31,33.00,1020.03,2055.03,3159.13,3124.35,3362.34,349.83,332.29,12.73,0000 0000 0000 0000 000000
2014-04-18 01:29:51,0.14,0.81,0.00,16.42,22.92,25.71,6.10,33.08,1020.02,2055.04,3159.05,3124.15,3362.13,348.86,331.37,12.74,0000 0000 0000 0000 000000
2014-04-18 01:30:51,0.09,0.81,0.00,16.42,22.92,25.72,6.23,33.21,1020.03,2055.04,3158.90,3124.05,3362.05,349.58,331.94,12.75,0000 0000 0000 0000 000000
2014-04-18 01:31:51,0.05,0.81,0.00,16.45,22.92,25.71,6.15,32.79,1020.03,2055.03,3158.42,3124.01,3362.00,350.11,332.51,12.75,0000 0000 0000 0000 000000
2014-04-18 01:32:52,0.06,0.81,0.00,16.47,22.92,25.75,6.17,32.96,1020.03,2055.02,3158.16,3123.97,3361.80,350.81,333.20,12.76,0000 0000 0000 0000 000000
2014-04-18 01:33:52,0.08,0.81,0.00,16.47,22.94,25.83,6.18,32.50,1020.03,2055.01,3158.04,3123.66,3361.39,350.07,332.46,12.76,0000 0000 0000 0000 000000
2014-04-18 01:34:52,0.14,0.81,0.00,16.49,22.94,25.85,6.19,32.88,1020.03,2055.00,3157.66,3123.25,3361.15,350.90,333.22,12.77,0000 0000 0000 0000 000000
2014-04-18 01:35:52,0.16,0.82,0.00,16.49,22.94,25.88,6.26,32.83,1019.99,2055.00,3157.28,3123.10,3361.05,350.20,332.76,12.77,0000 0000 0000 0000 000000
2014-04-18 01:36:53,0.09,0.82,0.00,16.48,22.94,25.82,6.17,32.88,1019.92,2055.00,3157.11,3123.04,3361.00,349.12,331.86,12.78,0000 0000 0000 0000 000000
2014-04-18 01:37:53,0.03,0.82,0.00,16.49,22.95,25.83,6.19,33.13,1019.93,2055.00,3157.00,3123.01,3361.00,349.07,331.39,12.79,0000 0000 0000 0000 000000
2014-04-18 01:38:53,0.01,0.82,0.00,16.48,22.95,25.79,6.06,32.71,1019.92,2055.00,3156.88,3122.98,3360.61,349.65,332.00,12.79,0000 0000 0000 0000 000000
2014-04-18 01:39:54,0.12,0.82,0.00,16.48,22.96,25.83,6.38,33.04,1019.87,2055.00,3156.46,3122.89,3360.25,350.82,333.10,12.80,0000 0000 0000 0000 000000
2014-04-18 01:40:54,0.11,0.82,0.00,16.49,22.97,25.89,6.39,33.17,1019.86,2055.00,3156.17,3122.55,3360.09,350.23,332.53,12.80,0000 0000 0000 0000 000000
2014-04-18 01:41:54,0.13,0.82,0.00,16.47,22.97,25.83,6.28,33.17,1019.65,2055.00,3156.06,3122.23,3360.03,349.61,331.44,12.81,0000 0000 0000 0000 000000
2014-04-18 01:42:54,0.07,0.82,0.00,16.48,22.97,25.75,6.30,33.13,1019.58,2055.00,3156.01,3122.11,3360.01,349.06,331.70,12.82,0000 0000 0000 0000 000000
2014-04-18 01:43:54,0.03,0.82,0.00,16.50,22.97,25.87,6.34,33.42,1019.58,2055.00,3155.85,3122.04,3359.85,350.57,332.72,12.82,0000 0000 0000 0000 000000
2014-04-18 01:44:55,0.07,0.82,0.00,16.50,22.97,25.90,6.27,33.29,1019.57,2055.00,3155.41,3122.01,3359.49,350.80,333.34,12.83,0000 0000 0000 0000 000000
2014-04-18 01:45:55,0.11,0.82,0.00,16.54,22.98,25.94,6.16,33.21,1019.55,2055.00,3155.15,3121.97,3359.20,349.50,331.77,12.83,0000 0000 0000 0000 000000
2014-04-18 01:46:55,0.07,0.82,0.00,16.55,22.99,25.94,6.31,33.46,1019.55,2055.00,3155.05,3121.78,3359.07,350.42,332.81,12.84,0000 0000 0000 0000 000000
2014-04-18 01:47:55,0.08,0.82,0.00,16.54,22.99,25.94,6.25,32.88,1019.55,2054.99,3155.00,3121.44,3359.02,350.31,332.44,12.85,0000 0000 0000 0000 000000
2014-04-18 01:48:55,0.07,0.82,0.00,16.52,22.99,25.94,6.22,33.04,1019.55,2054.99,3154.87,3121.21,3358.96,348.50,330.75,12.85,0000 0000 0000 0000 000000
2014-04-18 01:49:55,0.10,0.82,0.00,16.52,22.99,25.87,6.36,33.04,1019.57,2054.99,3154.39,3121.07,3358.62,350.17,332.33,12.86,0000 0000 0000 0000 000000
2014-04-18 01:50:56,0.13,0.82,0.00,16.52,22.99,25.91,6.14,32.88,1019.61,2054.99,3154.15,3121.03,3358.28,349.36,331.57,12.86,0000 0000 0000 0000 000000
2014-04-18 01:51:56,0.08,0.82,0.00,16.53,23.00,25.83,6.30,33.04,1019.74,2054.99,3154.05,3120.99,3358.12,350.28,332.49,12.87,0000 0000 0000 0000 000000
2014-04-18 01:52:56,0.04,0.82,0.00,16.54,23.00,25.89,6.38,32.92,1019.81,2054.99,3153.93,3120.97,3358.05,350.74,332.93,12.87,0000 0000 0000 0000 000000
2014-04-18 01:53:56,0.06,0.82,0.00,16.53,23.01,25.82,6.21,32.92,1019.87,2054.99,3153.56,3120.77,3358.02,350.01,332.35,12.88,0000 0000 0000 0000 000000
2014-04-18 01:54:56,0.10,0.82,0.00,16.53,23.02,25.88,6.24,33.00,1020.01,2054.99,3153.22,3120.44,3357.91,350.00,332.31,12.89,0000 0000 0000 0000 000000
2014-04-18 01:55:56,0.14,0.83,0.00,16.53,23.02,25.84,6.29,33.17,1019.95,2054.99,3153.08,3120.19,3357.49,349.46,332.14,12.89,0000 0000 0000 0000 000000
2014-04-18 01:56:57,0.12,0.83,0.00,16.51,23.02,25.94,6.23,32.96,1019.99,2054.99,3153.03,3120.07,3357.19,349.19,331.35,12.90,0000 0000 0000 0000 000000
2014-04-18 01:57:57,0.06,0.83,0.00,16.49,23.02,25.85,6.13,32.63,1020.02,2054.99,3152.92,3120.02,3357.07,350.00,332.35,12.90,0000 0000 0000 0000 000000
2014-04-18 01:58:57,0.04,0.83,0.00,16.49,23.02,25.83,6.17,32.63,1020.03,2054.99,3152.55,3120.00,3357.02,350.21,332.80,12.91,0000 0000 0000 0000 000000
2014-04-18 01:59:57,0.06,0.83,0.00,16.49,23.03,25.88,6.27,32.75,1020.03,2054.97,3152.21,3119.94,3357.00,349.57,332.19,12.92,0000 0000 0000 0000 000000
2014-04-18 02:00:57,0.04,0.83,0.00,16.52,23.04,25.93,6.25,32.88,1020.04,2054.98,3152.08,3119.64,3356.80,349.94,332.54,12.92,0000 0000 0000 0000 000000
2014-04-18 02:01:58,0.15,0.83,0.00,16.54,23.04,25.90,6.29,32.75,1020.04,2054.98,3151.91,3119.31,3356.33,350.28,332.73,12.93,0000 0000 0000 0000 000000
2014-04-18 02:02:58,0.14,0.83,0.00,16.57,23.04,25.89,6.05,32.92,1020.04,2054.98,3151.65,3119.13,3356.13,349.43,331.74,12.93,0000 0000 0000 0000 000000
2014-04-18 02:03:58,0.11,0.83,0.00,16.58,23.04,25.92,6.12,32.75,1020.04,2054.98,3151.33,3119.05,3356.05,349.94,332.32,12.94,0000 0000 0000 0000 000000
2014-04-18 02:04:59,0.06,0.83,0.00,16.59,23.05,25.85,6.29,32.71,1020.06,2054.98,3151.13,3119.01,3356.02,350.27,332.92,12.94,0000 0000 0000 0000 000000
2014-04-18 02:05:59,0.02,0.83,0.00,16.61,23.05,25.92,6.22,32.79,1020.05,2054.99,3151.05,3119.00,3355.96,350.15,332.37,12.95,0000 0000 0000 0000 000000
2014-04-18 02:06:59,0.03,0.83,0.00,16.62,23.06,25.87,6.23,32.92,1020.04,2054.97,3150.98,3118.98,3355.78,349.97,332.18,12.96,0000 0000 0000 0000 000000
2014-04-18 02:08:00,0.02,0.83,0.00,16.62,23.07,25.91,5.98,32.83,1020.04,2054.96,3150.65,3118.78,3355.41,348.65,330.66,12.96,0000 0000 0000 0000 000000
2014-04-18 02:09:00,0.15,0.83,0.00,16.61,23.07,25.78,6.40,33.13,1020.04,2054.93,3150.26,3118.41,3355.17,350.70,332.28,12.97,0000 0000 0000 0000 000000
2014-04-18 02:10:00,0.15,0.83,0.00,16.60,23.07,25.86,6.30,32.71,1020.04,2054.94,3150.09,3118.15,3355.06,350.32,332.54,12.97,0000 0000 0000 0000 000000
2014-04-18 02:11:01,0.09,0.83,0.00,16.61,23.07,25.91,6.17,32.88,1020.05,2054.94,3150.01,3118.05,3355.02,350.34,332.30,12.98,0000 0000 0000 0000 000000
2014-04-18 02:12:01,0.02,0.83,0.00,16.60,23.07,25.92,6.35,32.92,1020.05,2054.93,3149.73,3118.02,3354.96,349.95,332.20,12.99,0000 0000 0000 0000 000000
2014-04-18 02:13:01,0.04,0.83,0.00,16.59,23.08,25.94,6.29,32.88,1020.04,2054.90,3149.37,3118.00,3354.67,350.94,333.06,12.99,0000 0000 0000 0000 000000
2014-04-18 02:14:01,0.08,0.83,0.00,16.59,23.09,25.83,6.09,32.58,1020.14,2054.91,3149.14,3117.93,3354.28,349.58,331.49,13.00,0000 0000 0000 0000 000000
2014-04-18 02:15:02,0.11,0.83,0.00,16.59,23.09,25.89,6.17,32.83,1020.11,2054.92,3149.03,3117.59,3354.11,349.60,332.00,13.00,0000 0000 0000 0000 000000
2014-04-18 02:16:02,0.14,0.84,0.00,16.59,23.09,25.95,6.14,32.67,1020.10,2054.85,3148.75,3117.26,3354.04,349.05,331.62,13.01,0000 0000 0000 0000 000000
2014-04-18 02:17:02,0.06,0.84,0.00,16.59,23.09,26.06,6.20,32.79,1020.11,2054.79,3148.35,3117.10,3354.00,349.56,331.85,13.02,0000 0000 0000 0000 000000
2014-04-18 02:18:02,0.04,0.84,0.00,16.59,23.09,26.01,6.23,32.75,1020.15,2054.74,3148.14,3117.03,3353.79,349.52,332.08,13.02,0000 0000 0000 0000 000000
2014-04-18 02:19:03,0.01,0.84,0.00,16.59,23.10,25.96,6.27,32.71,1020.17,2054.58,3148.05,3116.99,3353.38,350.45,332.39,13.03,0000 0000 0000 0000 000000
2014-04-18 02:20:03,-0.02,0.84,0.00,16.60,23.11,26.02,6.22,32.88,1020.22,2054.41,3147.95,3116.94,3353.13,350.97,333.31,13.03,0000 0000 0000 0000 000000
2014-04-18 02:21:03,-0.07,0.84,0.00,16.62,23.12,26.03,6.28,32.83,1020.36,2054.38,3147.57,3116.71,3353.05,350.41,332.71,13.04,0000 0000 0000 0000 000000
2014-04-18 02:22:03,0.09,0.84,0.00,16.62,23.12,26.01,6.18,32.79,1020.43,2054.33,3147.23,3116.34,3353.01,349.39,331.76,13.04,0000 0000 0000 0000 000000
2014-04-18 02:23:04,0.09,0.84,0.00,16.64,23.12,25.99,6.36,32.79,1020.40,2054.26,3147.08,3116.14,3352.91,350.70,332.98,13.05,0000 0000 0000 0000 000000
2014-04-18 02:24:04,0.02,0.84,0.00,16.64,23.12,26.04,6.17,32.79,1020.44,2054.17,3147.01,3116.05,3352.50,350.03,332.63,13.06,0000 0000 0000 0000 000000
2014-04-18 02:25:04,0.01,0.84,0.00,16.65,23.12,26.07,6.18,32.58,1020.48,2054.10,3146.80,3116.02,3352.20,349.98,332.31,13.06,0000 0000 0000 0000 000000
2014-04-18 02:26:05,0.01,0.84,0.00,16.65,23.12,26.05,6.24,32.63,1020.52,2054.10,3146.31,3116.00,3352.08,349.94,332.28,13.07,0000 0000 0000 0000 000000
2014-04-18 02:27:05,0.09,0.84,0.00,16.65,23.14,26.05,6.29,32.71,1020.52,2054.07,3146.11,3115.86,3352.02,350.34,332.58,13.07,0000 0000 0000 0000 000000
2014-04-18 02:28:05,0.04,0.84,0.00,16.64,23.14,26.02,6.06,32.50,1020.52,2054.11,3146.04,3115.60,3351.99,348.93,331.64,13.08,0000 0000 0000 0000 000000
2014-04-18 02:29:06,0.12,0.84,0.00,16.63,23.14,26.00,6.13,32.88,1020.52,2054.11,3145.90,3115.25,3351.92,349.16,331.55,13.09,0000 0000 0000 0000 000000
2014-04-18 02:30:06,0.12,0.84,0.00,16.65,23.14,25.96,6.21,32.83,1020.52,2054.10,3145.55,3115.09,3351.59,349.86,332.49,13.09,0000 0000 0000 0000 000000
2014-04-18 02:31:06,0.10,0.84,0.00,16.65,23.14,25.98,6.32,32.83,1020.52,2054.06,3145.20,3115.02,3351.23,349.87,332.39,13.10,0000 0000 0000 0000 000000
2014-04-18 02:32:06,0.07,0.84,0.00,16.68,23.15,25.94,6.21,32.79,1020.53,2054.06,3145.07,3114.99,3351.08,350.09,331.97,13.10,0000 0000 0000 0000 000000
2014-04-18 02:33:07,0.06,0.84,0.00,16.68,23.15,25.99,6.13,32.67,1020.53,2054.06,3144.98,3114.97,3351.03,349.80,331.69,13.11,0000 0000 0000 0000 000000
2014-04-18 02:34:07,0.00,0.84,0.00,16.69,23.16,26.03,6.31,32.63,1020.54,2054.03,3144.56,3114.69,3350.99,351.03,333.27,13.11,0000 0000 0000 0000 000000
2014-04-18 02:35:07,0.15,0.84,0.00,16.70,23.17,25.91,6.15,32.58,1020.54,2054.04,3144.22,3114.40,3350.79,349.36,331.94,13.12,0000 0000 0000 0000 000000
2014-04-18 02:36:07,0.12,0.84,0.00,16.72,23.17,25.96,6.21,32.71,1020.61,2054.03,3144.07,3114.15,3350.33,349.57,331.72,13.13,0000 0000 0000 0000 000000